Back to catalog

ONEWEB-0189

AliveCommunicationsPO
NORAD 48217·PAYLOAD·🇬🇧 United Kingdom

Launched Apr 25, 2021 from Vostochny Cosmodrome

Loading…

Next Passes (next 24 hours)

TLE

FreshSource: CelesTrak SupGP

Epoch: Sep 14, 2026, 16:27 UTC

1 48217C 21031H   26257.68555556 -.00002578  00000+0 -69631-2 0  2573
2 48217  87.8899 271.8523 0001658  88.1207 311.7329 13.14501624    11

Track ONEWEB-0189 in real time with AllMySat

Download on the App Store